Terminal Aerodrome Forecast
Issued by NWS

Home | Current Version | Previous Version | Text Only | Print | Product List | Glossary On
Versions: 1 2 3 4 5 6 7 8 9 10 11 12 13 14 15 16 17 18 19 20 21 22 23 24 25 26 27 28 29 30 31 32 33 34 35 36 37 38 39 40 41 42 43 44 45 46 47 48 49 50
000
FTUS44 KLIX 281400 AAA
TAFASD
TAF AMD
KASD 281422Z 2814/2912 22005KT 2SM BR OVC002
     FM281530 28004KT 3SM BR OVC004
     FM281700 28006KT 5SM BR OVC006
     FM282000 35007KT P6SM SHRA OVC004
     FM290600 36005KT 5SM BR OVC004=

USA.gov is the U.S. government's official web portal to all federal, state and local government web resources and services.